Waarnemingen

Advertentie
Mijn weer
Villanueva De Cordoba, Spanje (8346): temperatuur & dauwpunt: 16.11.2019 09:00:00 - 22.11.2019 09:00:00 (CET)Villanueva De Cordoba, Spanje (8346): windsnelheid & windstoten: 16.11.2019 09:00:00 - 22.11.2019 09:00:00 (CET)Villanueva De Cordoba, Spanje (8346): windrichting: 16.11.2019 09:00:00 - 22.11.2019 09:00:00 (CET)Villanueva De Cordoba, Spanje (8346): luchtdruk: 16.11.2019 09:00:00 - 22.11.2019 09:00:00 (CET)Villanueva De Cordoba, Spanje (8346): zicht: 16.11.2019 09:00:00 - 22.11.2019 09:00:00 (CET)Villanueva De Cordoba, Spanje (8346): Zonneschijnduur: 16.11.2019 09:00:00 - 22.11.2019 09:00:00 (CET)Villanueva De Cordoba, Spanje (8346): neerslag: 16.11.2019 09:00:00 - 22.11.2019 09:00:00 (CET)
Datum & Tijd tt [°C] td [°C] ff [km/u] ff [kn] fx [km/u] fx [kn] dd ppp [hPa] vv [km] sd [min] rr [mm]
22.11.2019 09:00:00 9,3 8,4 15 8 31 17 ZZW 1004,9 18 0 0,0
22.11.2019 08:00:00 8,9 8,0 11 6 23 13 Z 1005,3 11 0 0,4
22.11.2019 07:00:00 8,8 7,8 8 5 19 11 Z 1005,8 7 0 -
22.11.2019 06:00:00 8,8 7,8 12 6 24 13 ZZW 1006,7 13 0 0,0
22.11.2019 05:00:00 9,0 8,1 12 6 25 13 ZZW 1006,9 10 0 0,0
22.11.2019 04:00:00 9,1 8,1 9 5 18 10 ZZW 1007,6 2,0 0 0,0
22.11.2019 03:00:00 9,0 8,1 9 5 17 9 ZW 1007,8 10 0 0,0
22.11.2019 02:00:00 9,0 8,1 8 4 14 8 ZZW 1008,0 1,3 0 0,2
22.11.2019 01:00:00 9,0 8,1 6 3 12 7 Z 1008,7 0,8 0 -
22.11.2019 00:00:00 9,0 8,1 5 3 12 7 ZZW 1009,1 4,8 0 0,0
21.11.2019 23:00:00 8,9 8,0 6 3 13 7 Z 1009,5 1,3 0 0,0
21.11.2019 22:00:00 8,9 8,0 6 3 21 11 ZZW 1009,6 0,5 0 0,0
21.11.2019 21:00:00 8,9 7,8 9 5 21 11 Z 1009,4 1,0 0 0,0
21.11.2019 20:00:00 9,1 8,0 7 4 14 8 ZZW - - 0 0,0
21.11.2019 19:00:00 9,2 8,1 4 2 12 6 Z 1009,1 0,7 0 -
21.11.2019 18:00:00 9,2 8,1 5 3 10 5 ZZO 1008,7 17 0 0,2
21.11.2019 17:00:00 9,3 8,3 4 2 12 6 OZO 1008,8 20 0 0,6
21.11.2019 16:00:00 9,5 8,4 6 3 13 7 ZW 1008,8 2,8 0 1,2
21.11.2019 15:00:00 9,5 8,4 8 5 16 9 ZW 1009,0 20 0 0,2
21.11.2019 14:00:00 9,2 8,1 8 5 21 12 ZW 1009,5 20 0 0,4
21.11.2019 13:00:00 8,9 8,0 13 7 23 12 ZZW 1010,1 20 0 -
21.11.2019 12:00:00 8,8 7,8 12 6 24 13 ZZW 1010,8 20 0 0,2
21.11.2019 11:00:00 8,5 7,6 12 6 22 12 ZZW 1010,9 15 0 0,6
21.11.2019 10:00:00 8,1 7,1 7 4 19 10 Z 1010,9 0,7 0 0,2
21.11.2019 09:00:00 7,8 6,8 10 5 21 11 ZZW 1010,9 1,3 0 0,0
21.11.2019 08:00:00 7,7 6,8 8 5 17 9 ZZW 1010,8 0,6 0 0,0
21.11.2019 07:00:00 7,4 6,5 10 5 18 10 ZW 1010,8 2,1 0 -
21.11.2019 06:00:00 7,2 6,2 7 4 17 9 ZZW 1010,4 4,2 0 0,0
21.11.2019 05:00:00 7,2 6,2 9 5 19 11 ZZW 1010,8 4,9 0 0,0
21.11.2019 04:00:00 7,3 6,4 9 5 23 12 ZZW 1011,0 8 0 0,0
21.11.2019 03:00:00 7,3 6,4 12 6 22 12 ZZW 1011,4 8 0 0,4
21.11.2019 02:00:00 7,2 6,2 10 5 24 13 ZW 1011,5 4,1 0 0,8
21.11.2019 01:00:00 7,2 6,2 15 8 28 15 ZW 1011,7 2,5 0 -
21.11.2019 00:00:00 6,9 5,8 9 5 18 10 ZZW 1011,7 0,3 0 1,0
20.11.2019 23:00:00 7,0 5,9 9 5 23 12 Z 1011,9 0,6 0 0,0
20.11.2019 22:00:00 6,8 5,8 13 7 26 14 ZW 1011,7 3,6 0 0,0
20.11.2019 21:00:00 6,6 5,6 13 7 29 16 ZZW 1011,4 4,5 0 0,0
20.11.2019 20:00:00 6,2 5,1 8 4 17 9 Z 1011,2 3,8 0 0,0
20.11.2019 19:00:00 5,8 4,8 7 4 18 10 Z 1011,2 6 0 -
20.11.2019 18:00:00 5,6 4,5 8 4 19 10 Z 1011,2 11 0 0,4
20.11.2019 17:00:00 5,6 4,5 8 4 25 14 Z 1011,2 7 0 0,8
20.11.2019 16:00:00 5,4 4,1 11 6 26 14 ZZO 1011,1 6 0 0,2
20.11.2019 15:00:00 5,4 3,9 10 6 22 12 ZZO 1011,4 6 0 0,2
20.11.2019 14:00:00 5,7 3,6 9 5 16 9 ZZO 1011,9 17 0 0,2
20.11.2019 13:00:00 6,0 3,8 6 4 20 11 Z 1012,8 16 0 -
20.11.2019 12:00:00 6,2 3,9 6 4 16 9 ZZW 1014,4 11 0 0,6
20.11.2019 11:00:00 6,2 3,6 8 5 24 13 Z 1014,0 20 0 0,0
20.11.2019 10:00:00 5,4 3,4 8 5 23 12 ZZO 1014,1 20 9 0,0
20.11.2019 09:00:00 4,0 2,9 10 5 18 10 ZZO 1014,4 19 0 0,0
20.11.2019 08:00:00 3,2 2,1 8 4 14 8 ZZO 1014,7 13 0 0,0
20.11.2019 07:00:00 3,2 1,9 7 4 14 8 ZZO 1014,5 12 0 -
20.11.2019 06:00:00 3,0 1,3 6 3 16 8 Z 1015,1 9 0 0,0
20.11.2019 05:00:00 3,6 1,9 9 5 15 8 ZZO 1015,1 17 0 0,0
20.11.2019 04:00:00 3,6 1,5 7 4 11 6 ZZO 1015,8 20 0 0,0
20.11.2019 03:00:00 4,0 1,3 7 4 10 6 Z 1016,2 20 0 0,0
20.11.2019 02:00:00 4,1 1,7 6 3 9 5 Z 1016,6 20 0 0,0
20.11.2019 01:00:00 4,4 1,7 6 3 9 5 Z 1017,0 20 0 -
20.11.2019 00:00:00 4,9 2,3 5 3 10 5 ZZO 1017,0 20 0 0,0
19.11.2019 23:00:00 5,1 2,9 5 3 8 4 ZZO 1017,5 20 0 0,0
19.11.2019 22:00:00 4,9 2,7 6 3 9 5 ZZO 1018,1 20 0 0,0
19.11.2019 21:00:00 5,4 2,9 6 4 10 5 ZZO 1017,9 20 0 0,0
19.11.2019 20:00:00 6,0 2,9 6 3 10 6 ZZO 1017,8 20 0 0,0
19.11.2019 19:00:00 6,7 1,7 3 2 6 3 NNO 1017,3 20 0 -
19.11.2019 18:00:00 8,3 2,1 4 2 8 5 NNW 1016,6 20 0 0,0
19.11.2019 17:00:00 9,5 2,3 4 2 15 8 NW 1016,3 20 24 0,0
19.11.2019 16:00:00 9,9 2,3 7 4 16 9 WNW 1016,6 20 0 0,0
19.11.2019 15:00:00 9,4 1,7 8 4 14 8 NW 1017,1 20 0 0,0
19.11.2019 14:00:00 9,6 2,5 8 5 16 9 W 1017,6 20 0 0,0
19.11.2019 13:00:00 9,8 1,9 8 5 15 8 WZW 1018,3 20 3 -
19.11.2019 12:00:00 9,3 3,0 7 4 15 8 Z 1019,4 20 52 0,0
19.11.2019 11:00:00 7,8 2,5 8 4 14 8 Z 1020,0 20 43 0,0
19.11.2019 10:00:00 5,9 3,2 5 3 10 5 Z 1020,6 20 1 0,0
19.11.2019 09:00:00 3,8 1,7 6 3 13 7 Z 1021,0 20 0 0,0
19.11.2019 08:00:00 3,5 1,3 7 4 11 6 Z 1020,7 20 0 0,0
19.11.2019 07:00:00 3,3 0,9 6 3 11 6 ZZW 1020,7 20 0 -
19.11.2019 06:00:00 4,8 0,6 5 3 8 5 ZO 1019,7 20 0 0,0
19.11.2019 05:00:00 4,3 1,1 4 2 7 4 ONO 1019,8 20 0 0,0
19.11.2019 04:00:00 4,1 1,3 5 3 9 5 NNO 1020,0 20 0 0,0
19.11.2019 03:00:00 4,2 1,5 5 3 15 8 NW 1020,3 20 0 0,0
19.11.2019 02:00:00 4,3 1,5 5 3 18 10 NNW 1020,5 20 0 0,0
19.11.2019 01:00:00 4,7 1,3 5 3 9 5 N 1020,7 20 0 -
19.11.2019 00:00:00 5,3 1,3 6 3 10 6 NW 1020,7 20 0 0,0
18.11.2019 23:00:00 5,9 1,5 6 3 10 5 NW 1020,3 20 0 0,0
18.11.2019 22:00:00 5,6 1,3 5 3 10 5 NNW 1020,2 20 0 0,0
18.11.2019 21:00:00 5,9 1,9 5 3 10 5 NW 1019,8 20 0 0,0
18.11.2019 20:00:00 6,4 2,1 6 3 16 9 NW 1019,4 20 0 0,0
18.11.2019 19:00:00 6,9 2,3 6 3 10 6 NW 1018,5 20 0 -
18.11.2019 18:00:00 8,9 2,5 5 3 14 8 NW 1017,4 20 45 0,0
18.11.2019 17:00:00 10,0 2,1 6 4 17 9 NNW 1016,6 20 33 0,0
18.11.2019 16:00:00 10,2 2,3 8 5 23 12 N 1016,2 20 52 0,0
18.11.2019 15:00:00 10,0 3,4 11 6 26 14 N 1016,2 20 55 0,0
18.11.2019 14:00:00 9,5 3,6 10 6 23 12 N 1016,1 20 59 0,0
18.11.2019 13:00:00 8,4 3,4 10 5 29 16 N 1016,4 20 58 -
18.11.2019 12:00:00 7,2 4,3 11 6 23 13 N 1017,1 20 39 0,0
18.11.2019 11:00:00 6,2 4,3 10 6 22 12 NNW 1017,3 20 37 0,0
18.11.2019 10:00:00 5,2 3,9 7 4 17 9 NW 1016,6 20 55 0,0
18.11.2019 09:00:00 4,2 3,2 10 6 19 10 NW 1016,1 20 2 0,0
18.11.2019 08:00:00 3,8 2,9 9 5 21 11 NW 1015,4 20 0 0,0
18.11.2019 07:00:00 4,3 3,2 9 5 24 13 NW 1014,7 20 0 -
18.11.2019 06:00:00 4,7 3,6 11 6 29 16 NNW 1013,6 20 0 0,0
18.11.2019 05:00:00 5,2 3,9 10 6 31 17 NNW 1012,9 20 0 0,0
18.11.2019 04:00:00 6,2 5,0 18 10 37 20 NNW 1012,0 20 0 0,0
18.11.2019 03:00:00 7,5 6,2 12 7 26 14 NW 1011,5 20 0 0,4
18.11.2019 02:00:00 8,7 7,6 17 9 44 24 NNW 1011,2 4,1 0 1,4
18.11.2019 01:00:00 9,4 8,4 18 10 42 23 WNW 1011,4 20 0 -
18.11.2019 00:00:00 9,5 8,4 25 14 50 27 W 1011,7 20 0 0,2
17.11.2019 23:00:00 9,3 8,4 19 10 36 19 W 1012,7 9 0 0,0
17.11.2019 22:00:00 9,2 8,3 21 11 41 22 WZW 1013,2 20 0 0,8
17.11.2019 21:00:00 8,7 7,8 19 10 35 19 ZW 1013,5 3,5 0 2,0
17.11.2019 20:00:00 7,1 6,2 16 9 30 16 ZZW 1014,8 2,3 0 3,8
17.11.2019 19:00:00 6,1 5,1 11 6 23 12 Z 1015,5 0,4 0 -
17.11.2019 18:00:00 6,1 5,0 11 6 21 12 Z 1016,2 0,3 0 0,2
17.11.2019 17:00:00 5,4 4,3 10 6 21 12 Z 1016,7 0,4 0 0,4
17.11.2019 16:00:00 4,9 3,9 10 5 18 10 Z 1017,3 0,3 0 0,2
17.11.2019 15:00:00 4,8 3,8 9 5 20 11 ZZO 1018,0 3,1 0 1,2
17.11.2019 14:00:00 4,6 3,6 10 5 25 13 Z 1018,8 1,0 0 1,8
17.11.2019 13:00:00 4,2 3,2 10 6 29 16 Z 1019,6 2,6 0 -
17.11.2019 12:00:00 4,1 2,9 14 7 27 14 Z 1020,6 2,5 0 1,2
17.11.2019 11:00:00 4,0 2,9 10 5 20 11 Z 1020,8 2,9 0 1,2
17.11.2019 10:00:00 3,8 2,7 9 5 21 11 ZZW 1020,8 2,4 0 0,4
17.11.2019 09:00:00 2,8 1,3 8 4 13 7 ZZW 1020,9 6 0 0,4
17.11.2019 08:00:00 2,1 0,0 7 4 13 7 Z 1020,8 20 0 0,0
17.11.2019 07:00:00 2,0 0,0 7 4 13 7 ZZW 1020,7 20 0 -
17.11.2019 06:00:00 1,8 -0,7 8 4 16 9 ZZW 1020,8 20 0 0,0
17.11.2019 05:00:00 2,4 -0,3 9 5 17 9 WZW 1020,4 20 0 0,0
17.11.2019 04:00:00 2,4 -0,7 9 5 18 10 W 1020,7 20 0 0,0
17.11.2019 03:00:00 2,8 -0,7 11 6 21 11 WZW 1020,5 20 0 0,0
17.11.2019 02:00:00 3,3 -1,0 13 7 18 10 WZW 1020,5 20 0 0,0
17.11.2019 01:00:00 3,5 -1,4 10 5 18 10 W 1020,8 20 0 -
17.11.2019 00:00:00 3,7 -2,0 10 5 19 10 W 1020,8 20 0 0,0
16.11.2019 23:00:00 4,1 -2,2 14 7 21 11 W 1020,8 20 0 0,0
16.11.2019 22:00:00 4,0 -2,0 12 6 19 10 W 1020,9 20 0 0,0
16.11.2019 21:00:00 4,4 -2,0 7 4 16 8 W 1020,6 20 0 0,0
16.11.2019 20:00:00 5,0 -2,2 5 3 11 6 WNW 1020,0 20 0 0,0
16.11.2019 19:00:00 6,1 -2,0 5 3 14 8 WNW 1019,2 20 0 -
16.11.2019 18:00:00 8,0 -2,7 9 5 26 14 WNW 1018,2 20 54 0,0
16.11.2019 17:00:00 9,2 -2,7 13 7 28 15 NW 1017,5 20 51 0,0
16.11.2019 16:00:00 9,6 -2,7 12 7 26 14 WNW 1016,8 20 60 0,0
16.11.2019 15:00:00 9,2 -2,0 12 6 22 12 NW 1016,4 20 60 0,0
16.11.2019 14:00:00 9,0 -1,2 10 5 23 12 NNW 1016,4 20 60 0,0
16.11.2019 13:00:00 8,0 -1,4 8 4 19 10 NNW 1017,0 20 60 -
16.11.2019 12:00:00 7,5 -0,5 4 2 17 9 N 1017,4 20 60 0,0
16.11.2019 11:00:00 4,7 -0,7 8 5 16 9 NW 1018,1 20 60 0,0
16.11.2019 10:00:00 3,0 -1,2 5 3 15 8 NNW 1017,7 20 60 0,0
16.11.2019 09:00:00 0,3 -1,7 5 3 16 8 NNW 1017,7 20 2 0,0

tt = temperatuur
td = dauwpunt
ff = windsnelheid
fx = windstoten
dd = windrichting
ppp = luchtdruk
vv = zicht
sd = Zonneschijnduur
rr = neerslag

Weerstations in de omgeving